Powrót do katalogu

STARLINK-30511

AktywnyŁącznośćVLEO
NORAD 57978·PAYLOAD·🇺🇸 United States

Wystrzelony Sep 30, 2023 z Cape Canaveral Space Force Station

Loading…

Następne Przeloty (najbliższe 24 godziny)

TLE

ŚwieżeSource: CelesTrak SupGP

Epoka: Sep 14, 2026, 22:17 UTC

1 57978C 23151Q   26257.92895833 -.00051088  00000+0 -18501-2 0  2574
2 57978  43.0030   2.0371 0001509 272.4584 109.2778 15.27608937    11

Śledź STARLINK-30511 w czasie rzeczywistym z AllMySat

Download on the App Store